Washington, PA

12:41 AM EST on December 14, 2019 (GMT -0500)
Washington County

Weather History for KAFJ - October, 2019

Change the Weather History Date:

Thursday, October 3, 2019

  Actual Average Record
Temperature  
Mean Temperature 78 °F -  
Max Temperature 89 °F 65 °F 87 °F (2007)
Min Temperature 68 °F 43 °F 26 °F (2003)
Cooling Degree Days 14    
Growing Degree Days 28 (Base 50)    
Moisture  
Dew Point 67 °F    
Average Humidity 73    
Maximum Humidity 100    
Minimum Humidity 43    
Precipitation  
Precipitation 0.00 in - - ()
Sea Level Pressure  
Sea Level Pressure 29.97 in    
Wind  
Wind Speed 4 mph ()    
Max Wind Speed 16 mph    
Max Gust Speed 22 mph    
Visibility 9.5 miles    
Events      
Averages and records for this station are not official NWS values.
T = Trace of Precipitation, MM = Missing Value Source: Averaged Metar Reports

Daily Weather History Graph

Daily Weather History Graph

Search for Another Location

Airport or City:

Astronomy

Oct. 03, 2019 Rise Set
Actual Time 7:19 AM EDT 7:00 PM EDT
Civil Twilight 6:52 AM EDT 7:27 PM EDT
Nautical Twilight 6:20 AM EDT 7:58 PM EDT
Astronomical Twilight 5:49 AM EDT 8:30 PM EDT
Moon 12:49 PM EDT (10/3) 10:38 PM EDT (10/3)
Length of Visible Light 12h 35m
Length of Day
11h 41m
Waxing Crescent, 29% of the Moon is Illuminated
Oct 3
Waxing Crescent
Oct 5
First Quarter
Oct 13
Full
Oct 21
Last Quarter
Oct 27
New

Hourly Weather History & Observations

Time (EDT) Temp. Heat Index Dew Point Humidity Pressure Visibility Wind Dir Wind Speed Gust Speed Precip Events Conditions
12:56 AM 72.0 °F - 69.1 °F 91% 29.94 in 10.0 mi North 3.5 mph - N/A   Overcast
1:56 AM 72.0 °F - 69.1 °F 91% 29.95 in 10.0 mi Calm Calm - N/A   Overcast
2:56 AM 72.0 °F - 70.0 °F 93% 29.95 in 10.0 mi Calm Calm - N/A   Overcast
3:56 AM 71.1 °F - 69.1 °F 93% 29.95 in 10.0 mi SSW 3.5 mph - N/A   Overcast
4:56 AM 71.1 °F - 69.1 °F 93% 29.97 in 10.0 mi Calm Calm - N/A   Overcast
5:56 AM 70.0 °F - 68.0 °F 93% 29.99 in 8.0 mi Calm Calm - N/A   Partly Cloudy
6:56 AM 69.1 °F - 68.0 °F 96% 29.99 in 5.0 mi Calm Calm - N/A   Partly Cloudy
7:56 AM 68.0 °F - 68.0 °F 100% 29.99 in 4.0 mi Calm Calm - N/A   Overcast
8:56 AM 73.0 °F - 70.0 °F 90% 29.99 in 10.0 mi South 5.8 mph - N/A   Clear
9:56 AM 78.1 °F - 69.1 °F 74% 29.99 in 10.0 mi Variable 6.9 mph - N/A   Partly Cloudy
10:56 AM 81.0 °F 84.1 °F 69.1 °F 67% 29.98 in 10.0 mi SW 6.9 mph - N/A   Overcast
11:56 AM 84.0 °F 86.5 °F 66.9 °F 56% 29.97 in 10.0 mi SW 9.2 mph - N/A   Clear
12:56 PM 88.0 °F 90.3 °F 66.0 °F 48% 29.95 in 10.0 mi WSW 12.7 mph 18.4 mph N/A   Clear
1:56 PM 88.0 °F 89.6 °F 64.9 °F 46% 29.94 in 10.0 mi SW 12.7 mph 19.6 mph N/A   Mostly Cloudy
2:56 PM 87.1 °F 87.8 °F 63.0 °F 44% 29.93 in 10.0 mi WSW 12.7 mph 19.6 mph N/A   Partly Cloudy
3:56 PM 89.1 °F 90.3 °F 64.0 °F 43% 29.91 in 10.0 mi SW 16.1 mph 21.9 mph N/A   Scattered Clouds
4:56 PM 87.1 °F 87.8 °F 63.0 °F 44% 29.91 in 10.0 mi WSW 6.9 mph - N/A   Mostly Cloudy
5:56 PM 87.1 °F 88.3 °F 64.0 °F 46% 29.92 in 10.0 mi WSW 6.9 mph - N/A   Overcast
6:56 PM 84.0 °F 85.8 °F 64.9 °F 53% 29.94 in 10.0 mi West 8.1 mph - N/A   Overcast
7:56 PM 81.0 °F 83.0 °F 66.0 °F 60% 29.96 in 10.0 mi WNW 6.9 mph - N/A   Mostly Cloudy
8:56 PM 75.9 °F - 68.0 °F 76% 30.00 in 10.0 mi NNW 12.7 mph 19.6 mph N/A   Clear
9:56 PM 73.0 °F - 68.0 °F 84% 30.02 in 10.0 mi NNW 5.8 mph - N/A   Mostly Cloudy
10:56 PM 71.1 °F - 66.0 °F 84% 30.04 in 10.0 mi NNW 6.9 mph - N/A   Mostly Cloudy
11:41 PM 69.8 °F - 64.4 °F 83% 30.07 in 10.0 mi NNW 6.9 mph - N/A   Scattered Clouds
11:56 PM 69.1 °F - 63.0 °F 81% 30.05 in 10.0 mi NW 9.2 mph 16.1 mph N/A   Mostly Cloudy